Regional Weather Roundup
Issued by NWS

Home | Current Version | Previous Version | Graphics & Text | Print | Product List | Glossary Off
Versions: 1 2 3 4 5 6 7 8 9 10 11 12 13 14 15 16 17 18 19 20 21 22 23 24 25 26 27 28 29 30 31 32 33 34 35 36 37 38 39 40 41 42 43 44 45 46 47 48 49 50

000
ASUS43 KMKX 270920
RWRWI

WISCONSIN REGIONAL WEATHER ROUNDUP
NATIONAL WEATHER SERVICE MILWAUKEE/SULLIVAN WI
400 AM CDT FRI MAR 27 2015

NOTE: "FAIR" INDICATES FEW OR NO CLOUDS BELOW 12,000 FEET WITH NO
SIGNIFICANT WEATHER AND/OR OBSTRUCTIONS TO VISIBILITY.

WIZ001-002-006>008-014>016-023>028-271000-
NORTHWEST WISCONSIN

CITY           SKY/WX    TMP DP  RH WIND       PRES   REMARKS
SUPERIOR ARPT  CLEAR     18   6  58 N8        30.28R WCI   8
ASHLAND        CLEAR     13   6  74 N7        30.24S WCI   3
HAYWARD        CLEAR     12   6  77 CALM      30.21R
SIREN          CLEAR     12   3  67 N5        30.25S WCI   4
CUMBERLAND     CLEAR     18   5  57 N5        30.22R WCI  11
RICE LAKE      CLEAR     19   6  55 N5        30.23R WCI  12
CHETEK         CLEAR     17   7  65 CALM      30.22R
LADYSMITH      CLEAR     17   8  65 N7        30.20R WCI   8
EAU CLAIRE     CLEAR     17   7  64 N6        30.21R WCI   9
MENOMONIE      CLEAR     19  10  66 N3        30.23R
NEW RICHMOND   CLEAR     18   7  62 N3        30.24S
OSCEOLA        CLEAR     19   6  55 N3        30.28S
$$

WIZ003>005-009-010-017-018-271000-
NORTH CENTRAL WISCONSIN

CITY           SKY/WX    TMP DP  RH WIND       PRES   REMARKS
MANITOWISH WTR CLOUDY    12  10  92 CALM      30.14R
ARBOR VITAE    LGT SNOW  11   9  89 CALM      30.13S
WOODRUFF       LGT SNOW  11   9  89 CALM      30.13S
RHINELANDER    PTCLDY    10   5  80 CALM      30.13S
EAGLE RIVER    CLEAR      7   3  84 NW3       30.12S
LAND O LAKES   CLEAR     10   6  84 NW3       30.13R
PHILLIPS       PTCLDY    12   6  77 CALM      30.15R
TOMAHAWK       PTCLDY     8   4  84 CALM      30.16S
MEDFORD        CLEAR     10   4  79 N5        30.15R WCI   2
MERRILL        PTCLDY    11   6  83 N3        30.16R
$$

WIZ029-030-035-036-043>047-271000-
CENTRAL WISCONSIN

CITY           SKY/WX    TMP DP  RH WIND       PRES   REMARKS
WAUSAU         PTCLDY    15   7  70 N8        30.15R WCI   4
MOSINEE        CLOUDY    18   9  68 NW7       30.16R WCI   8
MARSHFIELD     CLEAR     14   6  70 N9        30.15S WCI   2
STEVENS POINT  CLOUDY    10   6  82 CALM      30.16S
WAUPACA        CLEAR     17   7  63 CALM      30.17S
WAUTOMA        CLEAR     15   6  67 CALM      30.17S
WISC RAPIDS    MOCLDY    14   5  67 CALM      30.18S
CAMP DOUGLAS   CLEAR     12   9  86 W3        30.18S
$$

WIZ011>013-019>022-031-037>040-048>050-271000-
NORTHEAST WISCONSIN

CITY           SKY/WX    TMP DP  RH WIND       PRES   REMARKS
ANTIGO         CLEAR      9   5  82 NW6       30.13S WCI  -1
SHAWANO        CLEAR     17   8  67 NW6       30.17S WCI   8
OCONTO         CLEAR     16   8  70 NW6       30.16S WCI   7
STURGEON BAY   CLEAR     16   7  67 NW12      30.15S WCI   3
GREEN BAY      CLEAR     19   9  65 NW12      30.16S WCI   7
MANITOWOC      CLEAR     19  10  68 N10       30.14S WCI   7
APPLETON       CLEAR     18   7  62 N7        30.15S WCI   8
CLINTONVILLE   PTCLDY    18   7  62 N6        30.17R WCI   9
OSHKOSH        CLEAR     18   6  59 N10       30.15S WCI   6
$$

WIZ032>034-041-042-053>061-271000-
SOUTHWEST WISCONSIN

CITY           SKY/WX    TMP DP  RH WIND       PRES   REMARKS
LA CROSSE      CLEAR     22   7  52 N3        30.22R
SPARTA         CLEAR     13   7  76 CALM      30.21R
VIROQUA        CLEAR     17   8  66 NE7       30.16S WCI   8
BOSCOBEL       CLEAR     23   7  50 N7        30.19R WCI  15
PRAIRIE DU CHI CLEAR     25   8  46 N8        30.19R WCI  17
PLATTEVILLE    PTCLDY    23  13  66 N9        30.14R WCI  13
$$

WIZ056-057-062-063-064-067-068-271000-
SOUTH CENTRAL WISCONSIN

CITY           SKY/WX    TMP DP  RH WIND       PRES   REMARKS
REEDSBURG      FAIR      18   6  59 N6        30.17R WCI   9
BARABOO/DELLS  FAIR      18   6  58 N6        30.16S WCI  10
LONE ROCK      CLEAR     22   4  46 N10       30.18S WCI  11
MINERAL POINT  CLEAR     23   9  54 N10       30.13S WCI  12
MADISON        CLEAR     20   8  60 N10       30.14S WCI   9
MIDDLETON      CLEAR     22   8  55 N13       30.15S WCI  10
WATERTOWN      PTCLDY    19   6  55 N10       30.12S WCI   8
MONROE         CLEAR     21  10  63 N12       30.11S WCI   9
JANESVILLE     CLEAR     25   9  50 N12G17    30.12R WCI  14
$$

WIZ051-052-058>065-066-070>072-271000-
SOUTHEAST WISCONSIN

CITY           SKY/WX    TMP DP  RH WIND       PRES   REMARKS
MILWAUKEE      MOCLDY    22  10  60 N18G25    30.10S WCI   7
WAUKESHA       CLOUDY    21   7  53 N13       30.12R WCI   9
MILWAUKEE/TIMM CLOUDY    21   9  58 N9        30.12R WCI  11
RACINE         CLOUDY    24  15  68 N18G24    30.11R WCI  10
BURLINGTON     PTCLDY    23  15  72 N10       30.09S WCI  12
KENOSHA        CLOUDY    25  19  78 N10       30.08S WCI  15
FOND DU LAC    CLEAR     19   6  57 N9        30.14F WCI   8
SHEBOYGAN      CLEAR     19   6  57 N13       30.13R WCI   6
WEST BEND      PTCLDY    19   5  53 N10       30.12R WCI   8
JUNEAU         PTCLDY    19   4  54 N14G20    30.14R WCI   5
$$

LSZ147-162-271000-
LAKE SUPERIOR

STATION/POSITION TIME  TEMP    WIND        PRES    WAVE
                       AIR SEA DIR/SP/G            HT/PER
                 (UTC) (F)     (DEG/KT/KT) (MB)    (FT/S)
DEVILS ISLAND    0900   21      20/ 15/ 18 1025.8R
PORT WING        0800   22      20/ 15/ 18 1024.7
$$

LMZ867-665-643>646-271000-
LAKE MICHIGAN

STATION/POSITION TIME  TEMP    WIND        PRES    WAVE
                       AIR SEA DIR/SP/G            HT/PER
                 (UTC) (F)     (DEG/KT/KT) (MB)    (FT/S)
NORTHPORT PIER   0810   20     350/ 14/ 18 1020.7R
SISTER BAY       0802   17     360/ 13/ 14   N/A
KEWAUNEE LAKESHO 0800   19     330/  8/ 13 1019.9R
SHEBOYGAN LAKESH 0900   20     330/ 17/ 20 1021.5R
PORT WASHINGTON  0800   21     350/  6/ 13 1021.0
MILWAUKEE LAKESH 0800   25     360/ 15/ 19   N/A
KENOSHA   LAKESH 0900   26      20/ 25/ 30 1018.6S
$$

TC  - TEMPERATURE IN CELSIUS
VSB - VISIBILITY IN STATUTE MILES
WCI - WIND CHILL INDEX
HX  - HEAT INDEX



USA.gov is the U.S. government's official web portal to all federal, state and local government web resources and services.